This demonstration page uses our WeatherBlox Daily Observations layout. Learn more.

39.29038, -76.61219

Hourly Observations for July 22, 2015

Temp ( °F °C ) Dew Point ( °F °C ) Humidity (%) Winds ( mph kmh ) Pressure ( in mb ) Visibility ( mi km ) Precip ( " mm )
12:54 am 00:54 Cloudy 78 25.6 58 14.4 50 50 undefined N/A 29.79 1009 N/A 0 0
1:54 am 01:54 Cloudy 76 24.4 64 17.8 67 67 undefined N/A 29.75 1008 N/A 0 0
2:54 am 02:54 undefined 75 23.9 62 16.7 64 64 undefined N/A 29.77 1008 N/A 0 0
3:54 am 03:54 undefined 74 23.3 60 15.6 62 62 undefined N/A 29.79 1009 N/A 0 0
4:54 am 04:54 undefined 72 22.2 57 13.9 59 59 undefined N/A 29.8 1009 N/A 0 0
5:54 am 05:54 undefined 70 21.1 58 14.4 66 66 undefined N/A 29.81 1010 N/A 0 0
6:54 am 06:54 undefined 71 21.7 57 13.9 61 61 undefined N/A 29.84 1010 N/A 0 0
7:54 am 07:54 undefined 73 22.8 57 13.9 57 57 undefined N/A 29.85 1011 N/A 0 0
8:54 am 08:54 undefined 76 24.4 57 13.9 52 52 undefined N/A 29.85 1011 N/A 0 0
9:54 am 09:54 undefined 78 25.6 54 12.2 43 43 undefined N/A 29.86 1011 N/A 0 0
10:54 am 10:54 undefined 80 26.7 52 11.1 38 38 undefined N/A 29.86 1011 N/A 0 0
11:54 am 11:54 Mostly Sunny 82 27.8 54 12.2 38 38 undefined N/A 29.86 1011 N/A 0 0
12:54 pm 12:54 undefined 83 28.3 53 11.7 36 36 undefined N/A 29.86 1011 N/A 0 0
1:54 pm 13:54 undefined 83 28.3 54 12.2 37 37 undefined N/A 29.85 1011 N/A 0 0
2:54 pm 14:54 Mostly Sunny 86 30 51 10.6 30 30 undefined N/A 29.85 1011 N/A 0 0
3:54 pm 15:54 Mostly Sunny 86 30 54 12.2 33 33 undefined N/A 29.84 1011 N/A 0 0
4:54 pm 16:54 Partly Cloudy 85 29.4 54 12.2 35 35 undefined N/A 29.84 1011 N/A 0 0
5:54 pm 17:54 undefined 85 29.4 55 12.8 36 36 undefined N/A 29.84 1011 N/A 0 0
6:54 pm 18:54 undefined 83 28.3 55 12.8 38 38 undefined N/A 29.86 1011 N/A 0 0
7:54 pm 19:54 Cloudy 82 27.8 53 11.7 37 37 undefined N/A 29.87 1012 N/A 0 0
8:54 pm 20:54 undefined 80 26.7 53 11.7 39 39 undefined N/A 29.89 1012 N/A 0 0
9:54 pm 21:54 undefined 79 26.1 53 11.7 41 41 undefined N/A 29.91 1013 N/A 0 0
10:54 pm 22:54 undefined 78 25.6 53 11.7 42 42 undefined N/A 29.92 1013 N/A 0 0
11:54 pm 23:54 Mostly Clear 77 25 53 11.7 43 43 undefined N/A 29.94 1014 N/A 0 0

Powered by AerisWeather